TimeEST,TemperatureF,Dew PointF,Humidity,Sea Level PressureIn,VisibilityMPH,Wind Direction,Wind SpeedMPH,Gust SpeedMPH,PrecipitationIn,Events,Conditions,WindDirDegrees,DateUTC
12:53 AM,28.9,26.1,89,29.97,4.0,West,10.4,18.4,0.00,Snow,Light Snow,280,2012-12-30 05:53:00
1:31 AM,28.4,24.8,86,29.93,2.5,West,11.5,21.9,0.00,Snow,Light Snow,280,2012-12-30 06:31:00
1:38 AM,28.4,24.8,86,29.94,3.0,WNW,11.5,18.4,0.00,Snow,Light Snow,290,2012-12-30 06:38:00
1:53 AM,28.9,25.0,85,30.00,4.0,WNW,10.4,21.9,0.00,Snow,Light Snow,300,2012-12-30 06:53:00
2:21 AM,28.4,24.8,86,29.96,10.0,WNW,12.7,23.0,0.00,,Overcast,290,2012-12-30 07:21:00
2:53 AM,28.0,24.1,85,30.04,7.0,West,11.5,19.6,0.00,Snow,Light Snow,280,2012-12-30 07:53:00
3:15 AM,28.4,24.8,86,30.00,10.0,WNW,15.0,23.0,0.00,,Overcast,290,2012-12-30 08:15:00
3:26 AM,28.4,23.0,80,30.00,10.0,WNW,12.7,21.9,0.00,,Overcast,290,2012-12-30 08:26:00
3:53 AM,28.0,23.0,81,30.07,10.0,West,13.8,21.9,0.00,,Overcast,280,2012-12-30 08:53:00
4:12 AM,28.4,23.0,80,30.03,10.0,West,11.5,21.9,N/A,,Overcast,280,2012-12-30 09:12:00
4:53 AM,27.0,21.9,81,30.11,10.0,WNW,16.1,23.0,N/A,,Overcast,290,2012-12-30 09:53:00
5:53 AM,27.0,19.9,75,30.15,10.0,WNW,11.5,23.0,N/A,,Overcast,290,2012-12-30 10:53:00
6:53 AM,26.1,19.9,78,30.20,10.0,WNW,12.7,21.9,N/A,,Overcast,290,2012-12-30 11:53:00
7:53 AM,26.1,21.0,81,30.24,9.0,West,12.7,21.9,N/A,,Overcast,280,2012-12-30 12:53:00
8:53 AM,26.1,21.0,81,30.28,6.0,West,10.4,18.4,0.00,,Haze,280,2012-12-30 13:53:00
9:33 AM,26.6,21.2,80,30.24,2.0,West,10.4,21.9,0.00,Snow,Light Snow,280,2012-12-30 14:33:00
9:53 AM,27.0,21.9,81,30.30,8.0,West,8.1,-,0.00,,Overcast,270,2012-12-30 14:53:00
10:53 AM,28.0,23.0,81,30.32,3.0,West,12.7,20.7,0.00,Snow,Light Snow,270,2012-12-30 15:53:00
11:53 AM,28.0,23.0,81,30.32,8.0,WSW,12.7,23.0,0.00,,Overcast,250,2012-12-30 16:53:00
12:08 PM,26.6,23.0,86,30.26,6.0,WSW,16.1,24.2,N/A,,Overcast,250,2012-12-30 17:08:00
12:53 PM,27.0,21.9,81,30.31,7.0,WSW,19.6,26.5,0.00,,Overcast,250,2012-12-30 17:53:00
1:53 PM,27.0,21.9,81,30.31,7.0,WSW,15.0,25.3,0.00,,Overcast,240,2012-12-30 18:53:00
2:30 PM,26.6,21.2,80,30.26,6.0,WSW,19.6,28.8,N/A,,Haze,250,2012-12-30 19:30:00
2:53 PM,27.0,21.9,81,30.34,9.0,WSW,18.4,24.2,N/A,,Overcast,240,2012-12-30 19:53:00
3:21 PM,26.6,21.2,80,30.28,7.0,WSW,19.6,27.6,N/A,,Overcast,250,2012-12-30 20:21:00
3:29 PM,26.6,21.2,80,30.28,9.0,WSW,15.0,-,N/A,,Overcast,250,2012-12-30 20:29:00
3:53 PM,26.1,21.0,81,30.36,10.0,West,16.1,-,N/A,,Overcast,260,2012-12-30 20:53:00
4:53 PM,26.1,19.0,75,30.37,10.0,WSW,15.0,-,N/A,,Overcast,240,2012-12-30 21:53:00
5:53 PM,25.0,18.0,75,30.37,10.0,West,10.4,-,N/A,,Overcast,260,2012-12-30 22:53:00
6:53 PM,25.0,19.0,78,30.36,10.0,WSW,10.4,-,N/A,,Overcast,240,2012-12-30 23:53:00
7:53 PM,26.1,19.0,75,30.38,10.0,WSW,13.8,-,N/A,,Overcast,240,2012-12-31 00:53:00
8:53 PM,25.0,19.0,78,30.39,10.0,WSW,12.7,-,N/A,,Overcast,240,2012-12-31 01:53:00
9:53 PM,25.0,19.0,78,30.38,10.0,SW,12.7,-,N/A,,Overcast,230,2012-12-31 02:53:00
10:53 PM,25.0,19.0,78,30.38,10.0,SW,12.7,-,N/A,,Overcast,220,2012-12-31 03:53:00
11:53 PM,25.0,19.0,78,30.37,10.0,SW,11.5,-,N/A,,Overcast,220,2012-12-31 04:53:00